Regional Weather Roundup
Issued by NWS

Home | Current Version | Previous Version | Graphics & Text | Print | Product List | Glossary On
Versions: 1 2 3 4 5 6 7 8 9 10 11 12 13 14 15 16 17 18 19 20 21 22 23 24 25 26 27 28 29 30 31 32 33 34 35 36 37 38 39 40 41 42 43 44 45 46 47 48 49 50
000
ASUS43 KMKX 080711
RWRWI

WISCONSIN REGIONAL WEATHER ROUNDUP
NATIONAL WEATHER SERVICE MILWAUKEE/SULLIVAN WI
100 AM CST MON FEB 08 2016

NOTE: "FAIR" INDICATES FEW OR NO CLOUDS BELOW 12,000 FEET WITH NO
SIGNIFICANT WEATHER AND/OR OBSTRUCTIONS TO VISIBILITY.

WIZ001-002-006>008-014>016-023>028-080800-
NORTHWEST WISCONSIN

CITY           SKY/WX    TMP DP  RH WIND       PRES   REMARKS
SUPERIOR ARPT  CLOUDY    19  13  77 NW17      29.72R WCI   4
ASHLAND        LGT SNOW  26  24  92 N12       29.64R FOG     WCI  16
HAYWARD        FLURRIES  20  15  81 VRB7      29.64R WCI  11
SIREN          LGT SNOW  17  11  77 NW13G20   29.73R WCI   3
CUMBERLAND     FLURRIES  18  12  79 NW15G23   29.66F WCI   3
RICE LAKE      FLURRIES  19  13  79 NW13      29.68F WCI   5
CHETEK         FLURRIES  19  14  80 NW6       29.67S WCI  11
LADYSMITH      LGT SNOW  23  19  85 W17       29.63R WCI   9
EAU CLAIRE     LGT SNOW  20  14  77 W8        29.67S WCI  10
MENOMONIE      CLOUDY    20  13  75 W13       29.69F WCI   7
NEW RICHMOND   FLURRIES  17  10  75 NW21      29.72S WCI  -1
OSCEOLA        FLURRIES  17  10  74 NW10G17   29.77S WCI   5
$$

WIZ003>005-009-010-017-018-080800-
NORTH CENTRAL WISCONSIN

CITY           SKY/WX    TMP DP  RH WIND       PRES   REMARKS
MANITOWISH WTR LGT SNOW  26  26  97 W6        29.51S WCI  20
ARBOR VITAE    CLOUDY    29  26  88 NW7       29.51F WCI  22
WOODRUFF       CLOUDY    29  26  88 NW7       29.51F WCI  22
RHINELANDER    LGT SNOW  29  26  89 W7        29.51S FOG     WCI  22
EAGLE RIVER    CLOUDY    30  28  94 NW7       29.50S WCI  23
LAND O LAKES   FLURRIES  30  29  96 W3        29.50F
PHILLIPS       LGT SNOW  24  21  90 W6        29.55S WCI  17
TOMAHAWK       LGT SNOW  26  23  87 NW8       29.54S WCI  18
MEDFORD        LGT SNOW  24  22  91 NW8       29.56S WCI  15
MERRILL        LGT SNOW  28  26  91 NW5       29.56S WCI  23
$$

WIZ029-030-035-036-043>047-080800-
CENTRAL WISCONSIN

CITY           SKY/WX    TMP DP  RH WIND       PRES   REMARKS
WAUSAU         FLURRIES  30  25  81 W12       29.54S WCI  20
MOSINEE        CLOUDY    28  27  93 W15       29.57S WCI  17
MARSHFIELD     LGT SNOW  25  19  78 NW12      29.57F WCI  14
STEVENS POINT  CLOUDY    28  24  84 W8G17     29.57S WCI  20
WAUPACA        CLOUDY    36  32  86 W9        29.56F WCI  29
WAUTOMA        CLOUDY    33  32  96 NW10      29.58S WCI  25
WISC RAPIDS    CLOUDY    29  22  75 NW9       29.60S WCI  20
CAMP DOUGLAS   MIX PCPN  28  28 100 W15       29.61S WCI  17
$$

WIZ011>013-019>022-031-037>040-048>050-080800-
NORTHEAST WISCONSIN

CITY           SKY/WX    TMP DP  RH WIND       PRES   REMARKS
ANTIGO         CLOUDY    30  29  94 W12       29.52S WCI  21
SHAWANO        CLOUDY    37  28  72 CALM      29.55F
OCONTO         CLOUDY    34  28  78 CALM      29.55F
STURGEON BAY   MOCLDY    34  27  75 SW6       29.58S WCI  29
GREEN BAY      CLOUDY    35  28  75 SW5       29.56F WCI  31
MANITOWOC      CLOUDY    33  27  78 SW6       29.58F WCI  28
APPLETON       CLOUDY    34  28  80 SW7       29.54F WCI  28
CLINTONVILLE   CLOUDY    34  30  86 W5        29.55F FOG     WCI  30
OSHKOSH        CLOUDY    34  27  75 SW7       29.56F WCI  28
$$

WIZ032>034-041-042-053>061-080800-
SOUTHWEST WISCONSIN

CITY           SKY/WX    TMP DP  RH WIND       PRES   REMARKS
LA CROSSE      LGT SNOW  24  20  84 NW14      29.69R FOG     WCI  12
SPARTA         LGT SNOW  26  22  87 NW12G18   29.66S WCI  15
VIROQUA        CLOUDY    24  19  83 NW13      29.63S WCI  12
BOSCOBEL       CLOUDY    30  19  63 W14G23    29.68R WCI  19
PRAIRIE DU CHI CLOUDY    28  17  64 NW18      29.69F WCI  15
PLATTEVILLE    CLOUDY    30  24  78 W15G23    29.65S WCI  19
$$

WIZ056-057-062-063-064-067-068-080800-
SOUTH CENTRAL WISCONSIN

CITY           SKY/WX    TMP DP  RH WIND       PRES   REMARKS
REEDSBURG      CLOUDY    32  28  83 W6        29.59F WCI  26
BARABOO/DELLS  CLOUDY    32  30  92 NW10      29.59S WCI  23
LONE ROCK      CLOUDY    32  25  75 W23G30    29.63S WCI  19
MINERAL POINT  CLOUDY    32  25  74 W20G26    29.62S WCI  20
MADISON        CLOUDY    33  29  85 MISG      29.59F
MIDDLETON      CLOUDY    34  32  90 W7        29.60F WCI  28
WATERTOWN      CLOUDY    32  32 100 SW5       29.59F WCI  27
MONROE         CLOUDY    32  32 100 SW13      29.61F WCI  22
JANESVILLE     CLOUDY    32  32 100 SW7       29.62F WCI  26
$$

WIZ051-052-058>065-066-070>072-080800-
SOUTHEAST WISCONSIN

CITY           SKY/WX    TMP DP  RH WIND       PRES   REMARKS
MILWAUKEE      PTCLDY    30  26  85 SW8       29.62F WCI  22
WAUKESHA       CLOUDY    30  27  86 SW8       29.61F WCI  23
MILWAUKEE/TIMM MOCLDY    32  27  80 SW6       29.61F WCI  26
RACINE         CLEAR     29  25  85 S6        29.65F WCI  23
BURLINGTON     CLEAR     29  26  88 SW8       29.62F WCI  21
KENOSHA        CLEAR     31  26  82 SW6       29.63F WCI  25
FOND DU LAC    CLOUDY    33  27  78 SW7       29.57F WCI  27
SHEBOYGAN      MOCLDY    28  24  85 S5        29.58F WCI  23
WEST BEND      MOCLDY    32  28  86 CALM      29.59F
JUNEAU         CLOUDY    32  29  87 SW7       29.59F WCI  26
$$

LSZ147-162-080800-
LAKE SUPERIOR

STATION/POSITION TIME  TEMP    WIND        PRES    WAVE
                       AIR SEA DIR/SP/G            HT/PER
                 (UTC) (F)     (DEG/KT/KT) (MB)    (FT/S)
DEVILS ISLAND    0600   26      30/ 16/ 19 1004.5R
PORT WING        0600   27     310/ 15/ 20 1004.4R
SAXON HARBOR     0600   30                 1001.0R
$$

LMZ867-665-643>646-080800-
LAKE MICHIGAN

STATION/POSITION TIME  TEMP    WIND        PRES    WAVE
                       AIR SEA DIR/SP/G            HT/PER
                 (UTC) (F)     (DEG/KT/KT) (MB)    (FT/S)
CHAMBERS ISLAND  0600   36     190/  4/  8 1001.4F
NORTHPORT PIER   0600   37      CALM  /  7 1001.4S
KEWAUNEE LAKESHO 0600   35     240/  2/  7 1001.0F
SHEBOYGAN LAKESH 0700   32     230/  8/  9 1002.7F
PORT WASHINGTON  0640   31     250/  3/  4 1003.7F
MILWAUKEE LAKESH 0610   34     200/  7/  8   N/A
KENOSHA   LAKESH 0700   33     230/  5/  9 1003.7F
$$

TC  - TEMPERATURE IN CELSIUS
VSB - VISIBILITY IN STATUTE MILES
WCI - WIND CHILL INDEX
HX  - HEAT INDEX




USA.gov is the U.S. government's official web portal to all federal, state and local government web resources and services.